Date String (YYYY-MM-DD hh:mm:ss) UTC,Instrument flags,Ambient pressure (hPa),Sample flow (lpm),Bypass flow (lpm),Sample temperature (°C),Ambient temperature (°C),ASC tube jacket temperature (°C),LED temperature (°C),Box temperature (°C),Sample RH (%),Span deviation,Mass concentration (μg/m³),Mass concentration (μg/m³),Mass concentration (μg/m³)
DateTimeUTC,F1_M11,P_M11,Q1_M11,Q2_M11,T1_M11,T2_M11,T3_M11,T4_M11,T5_M11,U1_M11,ZSPAN_M11,X0_M11,X2_M11,X1_M11
2022-08-14 10:00:00,,0828.9,5.01,0.00,29.5,28.3,00.0,38.3,31.4,30.6,0000.0,0014.49,0005.41,0004.16
2022-08-14 10:01:00,,0829.0,5.00,0.00,29.5,28.4,00.0,38.3,31.4,30.6,0000.0,0014.89,0005.50,0004.17
2022-08-14 10:02:00,,0829.0,5.00,0.00,29.5,28.5,00.0,38.3,31.4,30.6,0000.0,0015.40,0005.62,0004.18
2022-08-14 10:03:00,,0829.0,5.00,0.00,29.6,28.5,00.0,38.3,31.5,30.7,0000.0,0015.44,0005.67,0004.20
2022-08-14 10:04:00,,0829.1,5.00,0.00,29.6,28.6,00.0,38.4,31.5,30.6,0000.0,0015.70,0005.72,0004.18
2022-08-14 10:05:00,,0829.0,5.00,0.00,29.6,28.6,00.0,38.4,31.5,30.4,0000.0,0014.61,0005.65,0004.16
2022-08-14 10:06:00,,0829.0,5.00,0.00,29.6,28.7,00.0,38.4,31.5,30.7,0000.0,0013.57,0005.47,0004.13
2022-08-14 10:07:00,,0829.0,5.00,0.00,29.6,28.7,00.0,38.4,31.6,31.2,0000.0,0013.03,0005.38,0004.10
2022-08-14 10:08:00,,0829.0,5.00,0.00,29.7,28.8,00.0,38.4,31.6,30.6,0000.0,0012.52,0005.29,0004.09
2022-08-14 10:09:00,,0829.0,5.00,0.00,29.7,28.8,00.0,38.4,31.6,30.3,0000.0,0012.32,0005.23,0004.07
2022-08-14 10:10:00,,0829.0,4.99,0.00,29.7,28.8,00.0,38.4,31.6,30.3,0000.0,0012.22,0005.17,0004.05
2022-08-14 10:11:00,,0829.0,5.00,0.00,29.7,28.9,00.0,38.5,31.7,30.4,0000.0,0011.64,0005.07,0004.04
2022-08-14 10:12:00,,0829.0,5.00,0.00,29.8,28.8,00.0,38.5,31.7,30.4,0000.0,0011.68,0004.97,0004.02
2022-08-14 10:13:00,,0829.0,5.01,0.00,29.7,28.2,00.0,38.4,31.4,30.6,0000.0,0011.31,0004.83,0004.00
2022-08-14 10:14:00,,0829.0,4.99,0.00,29.7,27.6,00.0,38.4,31.3,30.7,0000.0,0010.77,0004.78,0003.99
2022-08-14 10:15:00,,0829.0,5.01,0.00,29.6,27.4,00.0,38.4,31.1,30.6,0000.0,0010.34,0004.68,0003.98
2022-08-14 10:16:00,,0829.0,4.99,0.00,29.5,27.4,00.0,38.4,31.1,30.6,0000.0,0009.65,0004.61,0003.97
2022-08-14 10:17:00,,0829.0,4.99,0.00,29.4,27.5,00.0,38.3,31.2,30.4,0000.0,0009.79,0004.60,0003.97
2022-08-14 10:18:00,,0829.0,5.02,0.00,29.4,27.7,00.0,38.3,31.2,30.4,0000.0,0010.13,0004.58,0003.96
2022-08-14 10:19:00,,0829.0,5.00,0.00,29.4,27.8,00.0,38.3,31.2,30.2,0000.0,0010.45,0004.55,0003.94
2022-08-14 10:20:00,,0829.0,4.99,0.00,29.4,27.9,00.0,38.3,31.3,30.4,0000.0,0011.22,0004.49,0003.92
2022-08-14 10:21:00,,0829.1,5.01,0.00,29.4,28.0,00.0,38.3,31.3,30.3,0000.0,0011.20,0004.45,0003.91
2022-08-14 10:22:00,,0829.0,5.00,0.00,29.4,28.1,00.0,38.3,31.3,30.1,0000.0,0010.63,0004.44,0003.89
2022-08-14 10:23:00,,0829.1,5.00,0.00,29.5,28.2,00.0,38.3,31.3,30.0,0000.0,0010.36,0004.42,0003.87
2022-08-14 10:24:00,,0829.1,5.00,0.00,29.5,28.3,00.0,38.3,31.4,30.1,0000.0,0010.46,0004.46,0003.86
2022-08-14 10:25:00,,0829.0,5.00,0.00,29.5,28.4,00.0,38.3,31.4,29.8,0000.0,0010.51,0004.43,0003.85
2022-08-14 10:26:00,,0829.1,5.00,0.00,29.5,28.4,00.0,38.3,31.4,29.7,0000.0,0010.52,0004.40,0003.83
2022-08-14 10:27:00,,0829.1,5.02,0.00,29.5,28.5,00.0,38.3,31.4,29.7,0000.0,0010.50,0004.38,0003.80
2022-08-14 10:28:00,,0829.1,5.00,0.00,29.5,28.6,00.0,38.3,31.5,29.2,0000.0,0010.37,0004.39,0003.78
2022-08-14 10:29:00,,0829.1,5.01,0.00,29.6,28.6,00.0,38.3,31.5,29.1,0000.0,0010.17,0004.41,0003.78
2022-08-14 10:30:00,,0829.1,5.00,0.00,29.6,28.6,00.0,38.3,31.5,29.0,0000.0,0009.76,0004.41,0003.77
2022-08-14 10:31:00,,0829.1,5.00,0.00,29.6,28.7,00.0,38.4,31.5,28.7,0000.0,0008.86,0004.39,0003.75
2022-08-14 10:32:00,,0829.1,5.00,0.00,29.6,28.7,00.0,38.4,31.6,28.6,0000.0,0008.68,0004.35,0003.72
2022-08-14 10:33:00,,0829.1,5.00,0.00,29.7,28.8,00.0,38.4,31.6,28.4,0000.0,0008.55,0004.27,0003.69
2022-08-14 10:34:00,,0829.1,5.00,0.00,29.7,28.8,00.0,38.4,31.6,28.2,0000.0,0008.33,0004.23,0003.65
2022-08-14 10:35:00,,0829.2,4.99,0.00,29.7,28.8,00.0,38.4,31.6,28.3,0000.0,0007.43,0004.12,0003.61
2022-08-14 10:36:00,,0829.2,5.00,0.00,29.7,28.8,00.0,38.4,31.7,28.3,0000.0,0007.31,0004.10,0003.59
2022-08-14 10:37:00,,0829.1,5.00,0.00,29.7,28.9,00.0,38.5,31.7,28.4,0000.0,0007.29,0004.09,0003.57
2022-08-14 10:38:00,,0829.1,5.00,0.00,29.8,28.9,00.0,38.5,31.7,28.4,0000.0,0007.49,0004.08,0003.56
2022-08-14 10:39:00,,0829.1,5.01,0.00,29.8,28.9,00.0,38.5,31.7,28.3,0000.0,0007.43,0004.00,0003.55
2022-08-14 10:40:00,,0829.1,4.99,0.00,29.8,28.3,00.0,38.5,31.5,28.3,0000.0,0007.05,0003.92,0003.51
2022-08-14 10:41:00,,0829.1,5.00,0.00,29.7,27.7,00.0,38.4,31.4,28.3,0000.0,0006.68,0003.86,0003.50
2022-08-14 10:42:00,,0829.0,5.00,0.00,29.6,27.4,00.0,38.4,31.2,28.5,0000.0,0006.54,0003.83,0003.49
2022-08-14 10:43:00,,0829.0,5.00,0.00,29.5,27.4,00.0,38.4,31.2,28.6,0000.0,0006.61,0003.83,0003.49
2022-08-14 10:44:00,,0829.0,4.99,0.00,29.5,27.5,00.0,38.4,31.2,28.8,0000.0,0006.96,0003.82,0003.48
2022-08-14 10:45:00,,0829.0,5.00,0.00,29.4,27.6,00.0,38.3,31.2,28.8,0000.0,0007.42,0003.82,0003.49
2022-08-14 10:46:00,,0829.0,5.00,0.00,29.4,27.7,00.0,38.3,31.2,28.7,0000.0,0007.41,0003.82,0003.49
2022-08-14 10:47:00,,0829.0,4.99,0.00,29.4,27.9,00.0,38.3,31.2,28.7,0000.0,0007.35,0003.81,0003.48
2022-08-14 10:48:00,,0829.0,5.00,0.00,29.4,28.0,00.0,38.3,31.2,28.6,0000.0,0007.35,0003.82,0003.47
2022-08-14 10:49:00,,0829.0,5.00,0.00,29.4,28.1,00.0,38.3,31.3,28.5,0000.0,0007.26,0003.81,0003.46
2022-08-14 10:50:00,,0829.1,5.02,0.00,29.5,28.2,00.0,38.3,31.3,28.4,0000.0,0007.37,0003.80,0003.45
2022-08-14 10:51:00,,0829.1,5.00,0.00,29.5,28.3,00.0,38.3,31.4,28.6,0000.0,0007.39,0003.79,0003.45
2022-08-14 10:52:00,,0829.1,5.00,0.00,29.5,28.4,00.0,38.3,31.4,29.0,0000.0,0007.59,0003.80,0003.45
2022-08-14 10:53:00,,0829.0,5.00,0.00,29.5,28.4,00.0,38.3,31.4,28.7,0000.0,0008.01,0003.82,0003.45
2022-08-14 10:54:00,,0829.1,5.00,0.00,29.5,28.5,00.0,38.3,31.4,28.5,0000.0,0008.02,0003.83,0003.45
2022-08-14 10:55:00,,0829.1,5.00,0.00,29.6,28.6,00.0,38.3,31.5,28.3,0000.0,0007.78,0003.83,0003.45
2022-08-14 10:56:00,,0829.2,5.00,0.00,29.6,28.6,00.0,38.4,31.5,28.4,0000.0,0007.64,0003.82,0003.44
2022-08-14 10:57:00,,0829.2,5.00,0.00,29.6,28.7,00.0,38.4,31.5,28.4,0000.0,0008.36,0003.81,0003.44
2022-08-14 10:58:00,,0829.2,5.01,0.00,29.6,28.7,00.0,38.4,31.5,28.4,0000.0,0008.29,0003.79,0003.44
2022-08-14 10:59:00,,0829.2,5.00,0.00,29.6,28.7,00.0,38.4,31.6,28.4,0000.0,0008.30,0003.76,0003.43
